Regional Weather Roundup
Issued by NWS

Home | Current Version | Previous Version | Text Only | Print | Product List | Glossary On
Versions: 1 2 3 4 5 6 7 8 9 10 11 12 13 14 15 16 17 18 19 20 21 22 23 24 25 26 27 28 29 30 31 32 33 34 35 36 37 38 39 40 41 42 43 44 45 46 47 48 49 50
260
ASUS43 KDTX 201801
RWRMI
MICHIGAN HOURLY REGIONAL WEATHER ROUNDUP
NATIONAL WEATHER SERVICE DETROIT/PONTIAC MI
100 PM EST MON FEB 20 2017

NOTE: "FAIR" INDICATES FEW OR NO CLOUDS BELOW 12,000 FEET WITH NO
SIGNIFICANT WEATHER AND/OR OBSTRUCTION TO VISIBILITY.

MIZ047>049-052>055-059>063-066>070-074>076-081>083-201900-
SOUTHEAST LOWER MICHIGAN

CITY           SKY/WX    TMP DP  RH WIND       PRES   REMARKS
ADRIAN         CLOUDY    51  35  54 E14       30.25F
6HR MIN TEMP:  34; 6HR MAX TEMP:  51;

ALMA           MOSUNNY   51  32  47 E9        30.24F
ANN ARBOR      CLOUDY    53  34  48 E9        30.25F
BAD AXE        SUNNY     45  34  65 E6        30.29F
6HR MIN TEMP:  26; 6HR MAX TEMP:  45;

CARO           CLOUDY    52  33  49 SE10      30.25F
DETROIT CITY   SUNNY     48  36  63 E9        30.28F
6HR MIN TEMP:  33; 6HR MAX TEMP:  48;

DETROIT        PTSUNNY   53  34  48 SE9       30.27F
6HR MIN TEMP:  35; 6HR MAX TEMP:  53;

FLINT          SUNNY     55  33  43 SE9       30.25F
6HR MIN TEMP:  30; 6HR MAX TEMP:  55;

GROSSE ILE     CLOUDY    46  34  62 S5        30.26F
6HR MIN TEMP:  34; 6HR MAX TEMP:  50;

HILLSDALE      CLOUDY    54  36  50 SE13      30.21F
HOWELL         SUNNY     53  32  44 SE10      30.24S
6HR MIN TEMP:  31; 6HR MAX TEMP:  54;


CITY           SKY/WX    TMP DP  RH WIND       PRES   REMARKS
JACKSON        MOSUNNY   55  34  45 SE13      30.23S
6HR MIN TEMP:  36; 6HR MAX TEMP:  55;

LAMBERTVILLE   MOSUNNY   49  33  54 E8        30.25F
6HR MIN TEMP:  37; 6HR MAX TEMP:  50;

LANSING        MOSUNNY   56  34  43 SE13      30.23S
6HR MIN TEMP:  31; 6HR MAX TEMP:  56;

LAPEER         FAIR      51  33  50 SE8       30.26F
6HR MIN TEMP:  28; 6HR MAX TEMP:  51;

MASON          CLOUDY    55  38  54 SE9       30.23S
6HR MIN TEMP:  36; 6HR MAX TEMP:  55;

MONROE         CLOUDY    47  34  61 E7G16     30.27F
6HR MIN TEMP:  33; 6HR MAX TEMP:  48;

MT. CLEMENS    SUNNY     47  35  63 SE10      30.27F
6HR MIN TEMP:  30; 6HR MAX TEMP:  47;

PONTIAC        PTSUNNY   51  31  46 E12       30.25F
6HR MIN TEMP:  29; 6HR MAX TEMP:  51;

PORT HOPE        N/A     36  32  85 SE8       30.30F WCI  30
6HR MIN TEMP:  31; 6HR MAX TEMP:  36;

PORT HURON     SUNNY     48  36  61 E9        30.29F
TRI CITIES     SUNNY     49  36  61 E9        30.27F
6HR MIN TEMP:  31; 6HR MAX TEMP:  49;

MIDLAND        FAIR      48  33  55 E7        30.26F
6HR MIN TEMP:  28; 6HR MAX TEMP:  48;

TROY           SUNNY     50  28  43 E8        30.29F
SAGINAW HB     SUNNY     52  32  46 E8        30.26F
$$
MIZ043>046-050>051-056>058-064>065-071>073-077>080-201900-
SOUTHWEST LOWER MICHIGAN

CITY           SKY/WX    TMP DP  RH WIND       PRES   REMARKS
BATTLE CREEK   CLOUDY    60  35  39 SE10      30.19F
6HR MIN TEMP:  38; 6HR MAX TEMP:  60;

BENTON HARBOR  MOSUNNY   63  44  50 SE16G25   30.12F
6HR MIN TEMP:  42; 6HR MAX TEMP:  64;

BIG RAPIDS     MOSUNNY   49  32  51 SE15      30.20F
6HR MIN TEMP:  29; 6HR MAX TEMP:  49;

COLDWATER      MOSUNNY   59  33  36 SE13      30.19F
6HR MIN TEMP:  32; 6HR MAX TEMP:  59;

FREMONT        FAIR      55  32  42 SE12      30.17F
HOLLAND        MOSUNNY   61  36  39 E13       30.15F
6HR MIN TEMP:  35; 6HR MAX TEMP:  61;

GRAND RAPIDS   CLOUDY    54  37  52 E15       30.18F
6HR MIN TEMP:  35; 6HR MAX TEMP:  55;

IONIA          FAIR      55  35  47 E9        30.21F
6HR MIN TEMP:  33; 6HR MAX TEMP:  55;

KALAMAZOO      CLOUDY    61  33  35 SE12      30.18F
6HR MIN TEMP:  34; 6HR MAX TEMP:  62;

LUDINGTON      CLOUDY    54  34  45 SE10G21   30.13F
6HR MIN TEMP:  35; 6HR MAX TEMP:  55;

MARSHALL       MOSUNNY   59  35  40 SE12      30.20F
6HR MIN TEMP:  33; 6HR MAX TEMP:  59;

MOUNT PLEASANT CLOUDY    51  32  49 SE10      30.23F
6HR MIN TEMP:  31; 6HR MAX TEMP:  51;

MUSKEGON       CLOUDY    57  34  41 SE13      30.16F
6HR MIN TEMP:  38; 6HR MAX TEMP:  57;

SOUTH HAVEN    MOSUNNY   62  43  50 S10G22    30.12F
$$
MIZ016>042-201900-
NORTHERN LOWER MICHIGAN

CITY           SKY/WX    TMP DP  RH WIND       PRES   REMARKS
ALPENA         PTSUNNY   38  29  70 SE15      30.31F WCI  29
6HR MIN TEMP:  33; 6HR MAX TEMP:  39;

BEAVER ISLAND  MOSUNNY   40  32  73 E12       30.20F WCI  33
6HR MIN TEMP:  31; 6HR MAX TEMP:  40;

BELLAIRE       PTSUNNY   47  32  57 SE7       30.21F
6HR MIN TEMP:  26; 6HR MAX TEMP:  47;

CADILLAC       CLOUDY    46  32  58 SE13      30.19F
CHARLEVOIX     MOSUNNY   44  31  61 E12       30.22F
6HR MIN TEMP:  33; 6HR MAX TEMP:  44;

FRANKFORT      CLOUDY    55  33  44 SE12G21   30.15F
GAYLORD        CLOUDY    44  29  55 SE9       30.22F
6HR MIN TEMP:  31; 6HR MAX TEMP:  44;

GRAYLING       MOSUNNY   46  32  59 SE10      30.23F
6HR MIN TEMP:  25; 6HR MAX TEMP:  46;

HARBOR SPRINGS CLOUDY    43  31  63 E10       30.22F
HOUGHTON LAKE  MOSUNNY   46  31  55 SE13      30.23F
6HR MIN TEMP:  26; 6HR MAX TEMP:  46;

MANISTEE       CLOUDY    55  32  41 SE14      30.14F
OSCODA         MOSUNNY   38  31  73 E8        30.32S WCI  32
6HR MIN TEMP:  32; 6HR MAX TEMP:  40;

PELLSTON       CLOUDY    41  30  65 E12       30.24F
6HR MIN TEMP:  24; 6HR MAX TEMP:  42;

ROGERS CITY    PTSUNNY   40  29  63 SE9       30.30F WCI  34
TRAVERSE CITY  CLOUDY    51  30  44 SE8G16    30.18F
6HR MIN TEMP:  31; 6HR MAX TEMP:  51;

$$
MIZ007>008-015-201900-
EASTERN UPPER MICHIGAN

CITY           SKY/WX    TMP DP  RH WIND       PRES   REMARKS
KINROSS        MOSUNNY   36  28  73 SE21      30.27F WCI  25
6HR MIN TEMP:  30; 6HR MAX TEMP:  37;

MACKINAC ISLAN CLOUDY    35  30  83 E15G26    30.26F WCI  25
6HR MIN TEMP:  33; 6HR MAX TEMP:  36;

NEWBERRY       MOSUNNY   39  30  69 SE18      30.20F WCI  30
6HR MIN TEMP:  31; 6HR MAX TEMP:  39;

S. S. MARIE    MOSUNNY   36  26  67 E12G20    30.28F WCI  28
6HR MIN TEMP:  30; 6HR MAX TEMP:  36;

MUNISING         N/A     43  29  57 S13G23    30.11F
6HR MIN TEMP:  34; 6HR MAX TEMP:  43;

$$
MIZ004>006-011>014-085-201900-
CENTRAL UPPER MICHIGAN

CITY           SKY/WX    TMP DP  RH WIND       PRES   REMARKS
MANISTIQUE     CLOUDY    36  32  86 E17       30.18F WCI  26
6HR MIN TEMP:  32; 6HR MAX TEMP:  36;

MENOMINEE      MOSUNNY   41  33  73 E7        30.12F
6HR MIN TEMP:  36; 6HR MAX TEMP:  43;

SAWYER-GWINN   SUNNY     41  30  65 S17G23    30.10F
$$
MIZ001>003-009>011-084-201900-
WESTERN UPPER MICHIGAN

CITY           SKY/WX    TMP DP  RH WIND       PRES   REMARKS
IRON MOUNTAIN  CLOUDY    43  30  60 SE9       30.07F
6HR MIN TEMP:  32; 6HR MAX TEMP:  43;

HOUGHTON       CLOUDY    39  30  70 E14       29.99F WCI  31
6HR MIN TEMP:  34; 6HR MAX TEMP:  39;

COPPER HARBOR    N/A     39  30  70 S21G36    30.00F WCI  29
6HR MIN TEMP:  36; 6HR MAX TEMP:  39;

IRONWOOD       CLOUDY    51  38  60 S15G26    29.88F
6HR MIN TEMP:  44; 6HR MAX TEMP:  51;

$$

ABBREVIATIONS USED IN REMARKS
   TC - TEMPERATURE IN CELSIUS
  WCI - WIND CHILL INDEX
   HX - HEAT INDEX
  VSB - VISIBILITY





USA.gov is the U.S. government's official web portal to all federal, state and local government web resources and services.